SCP
0 0 0 0 0 0 0 0 0 -0 -0 -0 -0 0 0 0 0 0 0 0 0 0 0 0 0 0 0 0 0 0 0 0 0 0 0 0 0 0 0 0 0 0 0 0 0 0 0 0 0
0 0 0 0 0 0 0 0 0 0 -0 -0 0 0 0 0 0 0 0 0 0 0 0 0 0 0 0 0 0 0 0 0 0 0 0 0 0 0 0 0 0 0 0 0 0 0 0 0 0
0 0 0 0 0 0 0 0 0 0 0 0 0 0 0 0 0 0 0 0 0 0 0 0 0 0 0 0 0 0 0 0 0 0 0 0 0 0 0 0 0 0 0 0 0 0 0 0 0
0 0 0 0 0 0 0 0 0 0 0 0 0 0 0 0 0 0 0 0 0 0 0 0 0 0 0 0 0 0 0 0 0 0 0 0 0 0 0 0 0 0 0 0 0 0 0 0 0
0 0 0 0 0 0 0 0 0 0 0 0 0 0 0 0 0 0 0 0 0 0 0 0 0 0 0 0 0 0 0 0 0 0 0 0 0 0 0 0 0 0 0 0 0 0 0 0 0
0 0 0 0 0 0 0 0 0 0 0 0 0 0 0 0 0 0 0 0 0 0 0 0 0 0 0 0 0 0 0 0 0 0 0 0 0 0 0 0 0 0 0 0 0 0 0 0 0
0 0 0 0 0 0 0 0 0 0 0 0 0 0 0 0 0 0 0 0 0 0 0 0 0 0 0 0 0 0 0 0 0 0 0 0 0 0 0 0 0 0 0 0 0 0 0 0 0
0 0 0 0 0 0 0 0 0 0 0 0 0 0 0 0 0 0 0 0 0 0 0 0 0 0 0 0 0 0 0 0 0 0 0 0 0 0 0 0 0 0 0 0 0 0 0 0 0
0 0 0 0 0 0 0 0 0 0 0 0 0 0 0 0 0 0 0 0 0 0 0 0 0 0 0 0 0 0 0 0 0 0 0 0 0 0 0 0 0 0 0 0 0 0 0 0 0
0 0 0 0 0 0 0 0 0 0 0 0 0 0 0 0 0 0 0 0 0 0 0 0 0 0 0 0 0 0 0 0 0 0 0 0 0 0 0 0 0 0 0 0 0 0 0 0 0
0 0 0 0 0 0 0 0 0 0 0 0 0 0 0 0 0 0 0 0 0 0 0 -0 -0 -0 0 0 0 0 0 0 0 0 0 0 0 0 0 0 0 0 0 0 0 0 0 0 0
0 0 0 0 0 0 0 0 0 0 0 0 0 0 0 0 0 0 0 0 0 0 0 0 -0 -0 0 0 0 0 0 0 0 0 0 0 0 0 0 0 0 0 0 0 0 0 0 0 0
0 0 0 0 0 0 0 0 0 0 0 0 0 0 0 0 0 0 0 0 0 0 0 0 0 0 0 0 0 0 0 0 0 0 0 0 0 0 0 1 1 1 0 0 0 0 0 0 0
0 0 0 0 0 0 0 0 0 0 0 0 0 0 0 0 0 0 0 0 0 0 0 0 0 0 0 0 0 0 0 0 0 0 0 0 0 0 0 1 1 1 1 1 0 0 0 0 0
0 0 0 0 0 0 0 0 0 0 0 0 0 0 0 0 0 0 0 0 0 0 0 0 0 0 0 0 0 0 0 0 0 0 0 0 0 0 0 0 1 1 1 1 1 1 1 0 0
0 0 0 0 0 0 0 0 0 0 0 0 0 0 0 0 0 0 0 0 0 0 0 0 0 0 0 0 0 0 0 0 0 0 0 0 0 0 0 0 1 1 1 1 1 1 1 1 0
0 0 0 0 0 0 0 0 0 0 0 0 0 0 0 0 0 0 0 0 0 0 0 0 0 0 0 0 0 0 0 0 0 0 0 0 0 0 0 0 0 1 1 1 1 1 1 1 1
0 0 0 0 0 0 0 0 0 0 0 0 0 0 0 0 0 0 0 0 0 0 0 0 0 0 0 0 0 0 0 0 0 0 0 0 0 0 0 0 0 0 1 1 1 1 1 1 1
0 0 0 0 0 0 0 0 0 0 0 0 0 0 0 0 0 0 0 0 0 0 0 0 0 0 0 0 0 0 0 0 0 0 0 0 0 0 0 0 0 0 1 1 1 1 1 1 1
0 0 0 0 0 0 0 0 0 0 0 0 0 0 0 0 0 0 0 0 0 0 0 0 0 0 0 0 0 0 0 0 0 0 0 0 0 0 0 0 0 0 1 1 1 1 1 1 1
0 0 0 0 0 0 0 0 0 0 0 0 0 0 0 0 0 0 0 0 0 0 0 0 0 0 0 0 0 0 0 0 0 0 0 0 0 0 0 0 0 0 0 1 1 1 1 1 1
0 0 0 0 0 0 0 0 0 0 0 0 0 0 0 0 0 0 0 0 0 0 0 0 0 0 0 0 0 0 0 0 0 0 0 0 0 0 0 0 0 0 0 0 1 1 1 1 1
0 0 0 0 0 0 0 0 0 0 0 0 0 0 0 0 0 0 0 0 0 0 0 0 0 0 0 0 0 0 0 0 0 0 0 0 0 0 0 0 0 0 0 0 0 1 1 1 1
0 0 0 0 0 0 0 0 0 0 0 0 0 0 0 0 0 0 0 0 0 0 0 0 0 0 0 0 0 0 0 0 0 0 0 0 0 0 0 0 0 0 0 0 0 1 1 1 1
0 0 0 0 0 0 0 0 0 0 0 0 0 0 0 0 0 0 0 0 0 0 0 0 0 0 0 0 0 0 0 0 0 0 0 0 0 0 0 0 0 0 0 0 0 0 1 1 1
0 0 0 0 0 0 0 0 0 0 0 0 0 0 0 0 0 0 0 0 0 0 0 0 0 0 0 0 0 0 0 0 0 0 0 0 0 0 0 0 0 0 0 0 0 0 0 1 1
0 0 0 0 0 0 0 0 0 0 0 0 0 0 0 0 0 0 0 0 0 0 0 0 0 0 0 0 0 0 0 0 0 0 0 0 0 0 0 0 0 0 0 0 0 0 0 0 1
0 0 0 0 0 0 0 0 0 0 0 0 0 0 0 0 0 0 0 0 0 0 0 0 0 0 0 0 0 0 0 0 0 0 0 0 0 0 0 0 0 0 0 0 0 0 0 0 0
0 0 0 0 0 0 0 0 0 0 0 0 0 0 0 0 0 0 0 0 0 0 0 0 0 0 0 0 0 0 0 0 0 0 0 0 0 0 0 0 0 0 0 0 0 0 0 0 0
0 0 0 0 0 0 0 0 0 0 0 0 0 0 0 0 0 0 0 0 0 0 0 0 0 0 0 0 0 0 0 0 0 0 0 0 0 0 0 0 0 0 0 0 0 0 0 0 0
Wind_Speed
11 8 5 4 5 2 7 6 6 6 5 8 7 5 6 9 7 6 5 3 2 5 7 9 7 7 7 7 7 7 8 8 8 8 7 7 7 6 6 5 5 4 3 3 3 2 2 2 2
9 7 4 4 3 4 6 6 8 9 6 3 4 6 7 9 9 6 5 4 1 4 5 5 6 6 6 6 7 7 7 8 8 8 8 8 7 7 6 6 5 5 4 4 3 3 3 2 2
9 6 4 2 1 4 5 5 6 6 7 5 4 7 7 8 8 7 6 3 2 3 2 3 2 3 4 5 6 7 7 8 8 8 8 8 8 8 7 7 6 6 5 5 4 3 3 3 2
5 4 3 1 5 5 4 4 3 3 5 7 5 8 8 8 7 7 6 4 4 3 2 4 4 3 2 4 5 6 7 8 8 9 9 9 9 9 9 8 8 7 6 6 5 4 4 4 3
4 3 2 3 5 5 4 5 5 5 5 7 6 8 8 8 8 8 7 7 6 5 6 6 10 9 8 6 5 5 6 7 8 8 9 9 9 10 9 9 9 8 8 7 6 5 5 4 4
3 3 1 3 5 5 4 4 4 6 7 6 5 6 7 7 9 9 8 8 8 8 7 7 9 9 9 9 9 8 7 7 8 9 9 9 10 10 10 10 10 9 9 8 7 6 6 5 4
3 1 1 3 5 5 4 3 5 4 6 7 4 5 6 9 8 7 8 8 8 7 7 7 7 7 8 9 10 10 9 8 8 8 9 9 10 10 11 10 11 10 10 9 8 8 7 6 5
3 1 2 2 3 4 4 4 5 6 6 5 5 5 6 7 5 5 7 7 7 7 7 6 6 6 6 6 7 9 9 8 8 8 8 9 10 11 11 12 11 11 11 10 10 9 8 7 6
4 3 1 1 2 5 5 5 5 5 8 8 8 9 7 5 5 6 7 7 8 8 7 6 5 5 5 5 6 7 7 7 7 6 7 7 7 8 8 11 9 11 11 11 10 10 9 8 8
3 1 3 3 2 6 6 5 5 5 7 8 9 9 7 5 6 8 8 8 8 8 8 6 6 6 5 4 3 3 4 4 4 4 5 5 5 6 7 6 9 11 11 11 11 10 10 10 8
1 3 5 5 5 7 7 6 3 5 5 5 6 7 6 6 6 7 8 8 8 8 8 8 7 7 6 4 4 3 3 3 4 4 4 4 5 5 6 4 6 8 11 9 9 10 9 8 6
5 6 5 7 5 5 6 6 5 3 6 6 6 5 5 5 6 7 7 8 7 8 9 9 9 8 7 7 5 4 4 3 3 3 4 3 3 5 5 4 5 5 5 6 6 6 8 8 8
6 7 6 6 7 6 7 6 6 7 7 6 6 5 4 4 5 5 6 7 8 8 9 9 10 9 9 7 6 6 5 5 5 4 4 4 4 5 5 4 4 6 5 6 6 7 7 8 8
7 10 9 7 7 6 7 7 6 7 7 6 5 4 3 3 4 5 7 8 9 9 10 9 10 9 9 7 7 6 6 5 6 5 6 5 5 5 5 6 5 5 5 5 6 7 7 7 6
10 10 8 5 5 5 6 6 4 8 7 6 5 3 2 2 3 6 7 8 9 9 10 10 9 9 9 9 8 7 6 7 6 6 7 7 6 6 6 6 5 5 5 6 5 7 6 6 7
7 6 5 6 5 5 7 4 7 8 8 6 3 2 1 1 4 5 7 8 8 9 10 9 8 9 9 8 8 6 6 6 6 6 6 7 7 7 6 6 6 5 5 4 4 5 5 6 6
7 6 5 6 6 5 7 3 7 8 7 6 4 3 2 1 4 5 6 8 8 8 9 9 9 9 9 9 7 6 6 6 5 5 5 6 7 7 7 6 5 5 5 5 5 5 6 6 6
5 6 4 4 6 7 7 5 5 8 8 6 5 4 3 3 4 5 6 7 7 8 8 8 8 9 9 7 6 5 5 5 5 5 5 7 6 7 7 6 7 6 5 5 6 7 6 5 5
2 4 3 2 2 5 8 7 5 8 8 8 7 5 4 3 4 4 6 6 7 7 8 8 9 9 7 6 6 6 6 5 5 5 6 6 7 7 7 6 6 6 6 6 7 7 8 7 5
3 4 2 3 2 5 6 8 6 8 9 8 7 6 4 4 4 4 5 6 7 7 8 8 9 8 8 6 6 6 6 6 5 5 6 6 6 6 6 7 6 6 6 7 7 7 6 6 6
2 2 1 2 3 4 6 7 6 7 8 8 8 7 6 4 5 6 6 6 6 7 7 7 8 8 7 8 6 6 5 5 4 6 6 7 7 6 6 7 7 6 7 6 7 7 9 7 7
2 2 2 3 5 2 3 4 3 4 7 9 9 8 6 4 4 4 5 6 7 7 7 7 8 8 7 7 6 8 6 6 7 6 6 7 7 7 6 6 6 7 6 7 7 8 7 8 7
5 3 3 3 4 5 4 6 2 3 4 5 6 7 6 4 4 4 4 6 6 6 6 6 7 7 7 7 6 7 6 6 6 6 8 7 6 7 6 6 6 6 6 7 8 8 8 7 8
7 6 4 4 6 5 1 5 2 2 1 0 2 5 5 4 4 4 4 4 5 5 5 5 5 6 6 6 6 7 7 8 8 8 8 7 6 5 7 7 6 6 6 6 7 7 9 8 9
6 6 4 6 5 1 2 5 4 2 1 3 2 3 4 4 4 4 4 5 5 5 5 5 5 5 6 6 6 7 7 8 8 8 7 7 6 6 8 7 6 5 6 6 7 7 8 9 9
3 6 5 4 2 1 4 5 1 2 1 3 4 4 4 4 4 4 4 5 5 5 4 5 5 5 5 6 7 7 7 6 6 7 7 7 6 7 9 8 7 7 6 6 6 6 7 7 8
4 3 4 5 3 4 3 2 2 3 4 5 6 6 6 5 5 5 5 5 5 5 4 4 5 5 5 6 6 6 7 7 7 7 7 6 6 7 9 8 7 7 6 6 6 5 6 6 7
4 2 4 5 4 3 2 3 0 2 2 3 6 7 7 6 6 5 5 5 5 5 5 4 4 5 5 5 5 5 6 7 7 7 8 8 8 8 8 8 7 6 6 6 5 5 5 5 6
5 4 4 3 4 5 2 2 3 1 2 3 4 5 6 6 6 5 5 5 5 5 5 5 4 4 4 5 5 5 5 6 7 6 7 7 8 8 8 8 8 7 7 6 5 5 5 5 5
4 4 6 5 3 3 4 0 4 2 4 5 5 4 5 6 6 6 5 5 5 5 5 5 4 4 4 4 5 5 5 6 6 7 7 7 8 8 8 8 8 7 7 7 6 6 5 5 5
Wind_Direction
170 171 185 214 227 136 72 55 44 49 55 47 40 42 51 40 19 45 52 61 97 144 148 155 168 174 177 181 185 185 185 184 182 183 183 185 187 189 192 197 198 196 190 186 185 176 162 153 138
159 161 203 232 247 103 81 57 55 47 36 35 52 47 61 59 39 41 45 28 113 142 154 152 149 180 188 195 199 199 200 198 197 197 197 197 200 201 205 207 207 209 208 206 206 207 194 181 165
158 193 236 236 52 59 81 60 57 62 45 35 64 52 44 31 14 18 18 17 111 120 133 106 141 200 206 211 213 212 213 213 211 208 206 207 208 209 211 215 217 219 219 219 217 220 212 201 193
178 209 226 144 93 68 64 52 29 65 65 41 68 78 74 36 5 11 21 38 72 80 69 65 32 352 295 260 242 234 231 228 225 221 218 218 217 216 218 220 223 223 224 224 223 227 225 217 210
220 236 193 117 100 97 75 43 39 59 65 47 63 88 77 38 27 31 38 41 46 47 39 41 36 21 6 345 312 283 263 249 243 238 232 230 228 225 223 224 226 226 229 228 226 231 232 229 221
229 241 201 127 122 119 92 43 52 65 76 57 57 89 75 42 32 32 35 39 41 40 32 29 36 24 14 2 350 334 306 281 266 256 249 243 239 235 230 228 228 228 230 231 229 229 235 235 229
264 257 96 127 140 138 105 62 43 54 66 43 11 85 92 46 37 43 49 52 47 41 37 24 14 14 12 3 357 349 332 311 290 276 267 257 251 246 240 235 232 231 230 232 231 229 233 236 234
275 236 139 149 155 120 111 100 63 32 63 46 24 61 65 37 46 61 63 59 54 46 36 27 15 6 359 351 355 348 343 329 313 298 288 278 264 253 246 241 231 233 233 231 231 229 232 233 234
251 238 157 125 141 118 135 127 89 72 82 75 67 67 71 68 75 69 60 52 43 37 29 24 10 0 352 340 347 339 336 329 316 296 286 282 269 261 246 246 235 233 234 233 233 230 230 230 220
246 261 66 56 65 124 132 117 119 126 102 95 92 87 88 81 64 55 45 38 32 24 17 12 359 350 342 333 331 320 310 307 302 297 290 277 268 264 264 265 250 245 241 236 234 232 229 231 219
65 74 101 99 99 126 131 121 130 148 106 99 104 99 88 72 56 45 39 29 19 10 6 359 352 346 339 325 311 305 292 288 287 292 292 284 279 262 254 250 241 239 236 233 217 219 228 227 230
106 85 104 118 118 133 134 130 122 82 94 104 102 101 92 67 50 36 26 18 8 3 356 350 342 336 333 327 318 296 291 286 281 273 279 283 274 263 255 244 248 247 239 234 227 227 229 229 228
122 120 102 109 118 122 126 127 120 114 117 122 122 117 87 60 42 32 16 6 0 357 351 350 338 337 333 327 312 302 298 296 290 282 271 271 271 262 254 250 245 249 245 236 230 229 232 235 237
119 123 123 124 126 134 139 133 144 137 147 144 142 124 92 55 22 7 4 357 356 352 349 347 339 337 330 321 313 310 303 292 287 283 279 274 271 270 265 253 250 252 254 251 242 233 227 228 230
133 131 134 144 146 145 168 169 161 146 166 164 163 134 94 46 9 2 359 349 351 348 347 350 338 338 334 326 320 311 304 301 295 290 283 276 269 268 267 263 252 249 253 249 243 237 231 225 220
162 175 182 159 171 167 234 237 145 164 183 185 185 161 162 23 353 4 353 347 350 347 348 349 344 341 340 333 319 310 307 307 300 295 288 283 277 271 269 264 259 250 250 246 238 231 222 223 224
195 226 228 164 187 192 236 265 151 179 199 205 205 211 244 313 350 1 351 347 347 343 344 348 348 343 343 336 323 316 313 310 305 303 300 296 289 280 270 267 265 255 246 244 240 225 223 222 224
222 250 249 204 175 215 236 248 173 192 214 224 224 237 261 315 351 354 347 345 340 340 342 348 344 345 343 339 334 332 326 323 320 316 314 311 298 291 282 270 262 258 246 239 238 233 222 225 224
271 259 264 105 139 235 249 257 217 202 216 227 232 244 273 315 334 348 342 344 339 344 346 349 345 349 347 346 340 337 338 333 334 330 330 318 308 301 289 282 274 262 254 248 242 236 228 221 212
192 236 218 143 154 257 269 265 238 216 226 237 249 255 269 299 314 340 338 345 341 345 346 346 351 350 349 348 335 328 327 324 333 332 331 328 319 309 295 285 277 266 259 253 247 237 233 225 205
166 276 251 184 172 215 277 254 210 209 223 232 242 253 270 287 309 332 340 341 340 344 347 346 348 346 350 344 338 334 333 323 341 343 340 335 327 316 304 295 284 273 262 251 245 239 232 227 215
145 90 164 188 234 207 278 290 160 192 223 231 235 238 249 261 285 312 326 335 339 343 342 341 347 347 348 341 344 344 340 342 339 334 333 329 329 326 319 304 292 279 267 259 249 240 240 235 224
93 122 166 225 258 261 214 269 154 167 244 234 229 232 239 248 270 297 317 327 330 335 334 336 340 348 352 347 344 334 342 340 333 335 337 335 334 333 331 320 307 293 275 265 259 250 241 236 232
136 156 161 210 243 247 185 269 275 158 310 348 198 213 220 231 250 276 299 311 321 323 324 329 334 345 348 342 341 342 343 338 339 341 341 338 335 336 341 327 315 304 290 273 262 255 246 240 237
207 231 223 209 212 193 110 260 280 48 302 261 233 207 211 225 251 271 290 306 320 321 320 322 328 333 341 341 343 344 343 336 340 340 341 337 337 339 340 335 322 314 303 289 272 259 252 245 240
214 262 286 299 308 131 187 249 9 83 272 235 229 227 224 231 247 266 282 294 301 308 309 315 322 326 334 335 342 343 343 336 340 340 334 335 334 334 335 334 328 323 312 302 285 266 256 250 246
195 219 336 294 283 268 209 241 246 171 221 220 224 227 231 236 241 260 275 284 292 297 299 303 310 320 329 334 337 339 342 341 339 335 335 337 336 333 334 330 327 329 326 316 306 284 268 257 251
339 136 212 252 279 268 228 239 253 182 241 225 229 232 233 233 242 255 269 278 287 295 291 287 295 310 322 327 333 337 334 338 337 334 342 340 338 339 332 333 330 332 331 323 313 300 294 273 256
171 193 232 254 283 294 307 102 84 327 317 291 263 238 231 230 239 254 268 276 284 283 275 272 279 297 315 323 331 329 337 336 332 338 340 336 337 337 335 336 336 338 336 331 324 313 307 296 281
250 238 227 258 225 263 286 322 120 247 281 279 274 246 229 230 238 248 262 271 273 281 282 277 279 290 302 315 321 327 330 331 334 341 341 338 339 338 336 338 339 343 340 335 328 321 314 303 297